Location: Dealu Mare
(46.0500°N, 22.8167°E)
Time: 22:44:05
(UTC+00:00)

GRACE-FO 2 - Pass Details

Date: 15 January 2026
Orbit: 448 x 461 km, 89.0° (Epoch: 14 February)

Event Time Altitude Azimuth Distance (km) Brightness Sun altitude
Rises 05:24:06 0° 178° (S) 2,445 8.5 -7.5°
Reaches altitude 10° 05:26:08 10° 178° (S) 1,581 7.5 -7.2°
Maximum altitude 05:29:33 88° 87° (E) 460 4.5 -6.6°
Drops below altitude 10° 05:33:02 10° 360° (N) 1,604 7.0 -6.1°
Sets 05:35:06 0° 0° (N) 2,486 7.9 -5.7°
